Location: Dal�� Lhota
(48.7500°N, 14.0167°E)
Time: 03:06:20
(UTC+00:00)

Courier 1B Rocket - Pass Details

Date: 30 July 2021
Orbit: 920 x 1202 km, 28.3° (Epoch: 26 September)

Event Time Altitude Azimuth Distance (km) Brightness Sun altitude
Rises 03:19:23 0° 228° (SW) 3,614 - -3.0°
Exits shadow 03:20:22 - 223° (SW) 3,363 7.2 -2.9°
Reaches altitude 10° 03:24:47 10° 191° (S) 2,622 6.9 -2.3°
Maximum altitude 03:25:55 11° 180° (S) 2,580 6.9 -2.1°
Drops below altitude 10° 03:27:01 10° 170° (S) 2,610 7.1 -2.0°
Sets 03:32:20 0° 132° (SE) 3,545 8.2 -1.2°
